Weather History for Somerville, NJ

Change the Weather History Date:

Sunday, March 30, 2014

  Actual Average Record
Temperature  
Mean Temperature 44 °F -  
Max Temperature 48 °F 58 °F 79 °F (1977)
Min Temperature 39 °F 33 °F 16 °F (1970)
Degree Days  
Heating Degree Days 20    
Moisture  
Dew Point 42 °F    
Average Humidity 88    
Maximum Humidity 97    
Minimum Humidity 79    
Precipitation  
Precipitation 0.64 in - - ()
Sea Level Pressure  
Sea Level Pressure 29.55 in    
Wind  
Wind Speed 8 mph (North)    
Max Wind Speed 18 mph    
Max Gust Speed 29 mph    
Visibility 7 miles    
Events Rain    
Averages and records for this station are not official NWS values.
T = Trace of Precipitation, MM = Missing Value Source: NWS Daily Summary

Daily Weather History Graph

Daily Weather History Graph

Search for Another Location

Airport:

Trip Planner

Search our weather history database for the weather conditions in past years. The results will help you decide how hot, cold, wet, or windy it might be!

Date:

Astronomy

Mar. 30, 2014 Rise Set
Actual Time 6:45 AM EDT 7:21 PM EDT
Civil Twilight 6:18 AM EDT 7:48 PM EDT
Nautical Twilight 5:45 AM EDT 8:21 PM EDT
Astronomical Twilight 5:12 AM EDT 8:54 PM EDT
Moon 6:29 AM EDT (3/30) 7:31 PM EDT (3/30)
Length of Visible Light 13h 30m
Length of Day
12h 35m
Waning Crescent, 0% of the Moon is Illuminated
Mar 30
Waning Crescent
Mar 30
New
Apr 7
First Quarter
Apr 15
Full
Apr 22
Last Quarter

Hourly Weather History & Observations

Time (EDT) Temp. Windchill Dew Point Humidity Pressure Visibility Wind Dir Wind Speed Gust Speed Precip Events Conditions
12:11 AM 46.0 °F 43.9 °F 44.1 °F 93% 29.64 in 3.0 mi Variable 4.6 mph 18.4 mph 0.07 in Rain Heavy Rain
12:18 AM 46.0 °F 41.4 °F 44.1 °F 93% 29.63 in 2.5 mi NE 9.2 mph - 0.10 in Rain Rain
12:27 AM 46.9 °F - 44.1 °F 90% 29.64 in 5.0 mi NNE 8.1 mph - 0.11 in Rain Light Rain
12:53 AM 46.9 °F - 45.0 °F 93% 29.62 in 10.0 mi ENE 8.1 mph - 0.12 in Rain Light Rain
1:14 AM 46.9 °F - 45.0 °F 93% 29.60 in 8.0 mi NE 5.8 mph - 0.00 in   Overcast
1:53 AM 46.9 °F - 45.0 °F 93% 29.59 in 5.0 mi NNE 8.1 mph - 0.01 in Rain Light Rain
2:01 AM 46.9 °F - 45.0 °F 93% 29.58 in 6.0 mi Variable 3.5 mph - 0.00 in Rain Light Rain
2:53 AM 46.9 °F - 45.0 °F 93% 29.56 in 8.0 mi Calm Calm - 0.01 in   Overcast
3:53 AM 46.9 °F - 45.0 °F 93% 29.54 in 5.0 mi North 5.8 mph - 0.00 in   Overcast
4:40 AM 46.9 °F - 45.0 °F 93% 29.53 in 6.0 mi North 4.6 mph - 0.01 in   Overcast
4:53 AM 46.9 °F - 46.0 °F 97% 29.54 in 5.0 mi North 3.5 mph - 0.01 in   Overcast
5:37 AM 46.0 °F 41.9 °F 43.0 °F 89% 29.53 in 10.0 mi North 8.1 mph - N/A   Overcast
5:53 AM 45.0 °F 40.1 °F 43.0 °F 93% 29.53 in 10.0 mi NNW 9.2 mph - N/A   Overcast
6:14 AM 45.0 °F 40.6 °F 42.1 °F 90% 29.52 in 10.0 mi North 8.1 mph - 0.00 in Rain Light Rain
6:53 AM 45.0 °F 40.1 °F 42.1 °F 90% 29.52 in 10.0 mi NNW 9.2 mph - 0.00 in   Overcast
7:53 AM 45.0 °F 40.6 °F 42.1 °F 90% 29.54 in 10.0 mi North 8.1 mph - N/A   Overcast
8:45 AM 45.0 °F 40.6 °F 42.1 °F 90% 29.53 in 10.0 mi North 8.1 mph - 0.00 in   Overcast
8:53 AM 45.0 °F 41.2 °F 42.1 °F 90% 29.53 in 10.0 mi North 6.9 mph - 0.00 in   Overcast
9:53 AM 46.0 °F 40.6 °F 41.0 °F 83% 29.53 in 7.0 mi North 11.5 mph 19.6 mph 0.00 in Rain Light Rain
10:53 AM 46.9 °F - 42.1 °F 83% 29.52 in 10.0 mi North 11.5 mph 21.9 mph 0.00 in   Overcast
11:53 AM 46.0 °F 41.9 °F 42.1 °F 86% 29.51 in 10.0 mi North 8.1 mph 23.0 mph 0.03 in Rain Light Rain
12:53 PM 48.0 °F - 42.1 °F 80% 29.51 in 10.0 mi North 13.8 mph 21.9 mph 0.01 in Rain Light Rain
1:53 PM 46.9 °F - 43.0 °F 86% 29.50 in 8.0 mi North 12.7 mph 17.3 mph 0.00 in Rain Light Rain
2:53 PM 48.0 °F - 43.0 °F 83% 29.49 in 9.0 mi North 13.8 mph 23.0 mph 0.00 in Rain Light Rain
3:53 PM 46.9 °F - 43.0 °F 86% 29.48 in 10.0 mi North 10.4 mph 21.9 mph 0.01 in Rain Light Rain
4:39 PM 46.0 °F 40.2 °F 42.1 °F 86% 29.47 in 3.0 mi NNW 12.7 mph 25.3 mph 0.07 in Rain Rain
4:53 PM 46.0 °F 43.1 °F 42.1 °F 86% 29.49 in 10.0 mi Variable 5.8 mph - 0.07 in Rain Light Rain
5:21 PM 46.0 °F 38.8 °F 41.0 °F 83% 29.48 in 1.8 mi North 18.4 mph 28.8 mph 0.07 in Rain Heavy Rain
5:24 PM 45.0 °F 37.6 °F 41.0 °F 86% 29.49 in 2.0 mi North 17.3 mph 28.8 mph 0.08 in Rain Heavy Rain
5:36 PM 45.0 °F 38.2 °F 41.0 °F 86% 29.50 in 4.0 mi North 15.0 mph 25.3 mph 0.10 in Rain Rain
5:50 PM 44.6 °F 41.4 °F 41.0 °F 87% 29.53 in 3.0 mi North 5.8 mph 16.1 mph 0.13 in Rain Light Rain
5:53 PM 45.0 °F - 42.1 °F 90% 29.55 in 3.0 mi Calm Calm - 0.14 in Rain Light Rain
6:05 PM 45.0 °F 38.2 °F 41.0 °F 86% 29.53 in 2.0 mi North 15.0 mph 19.6 mph 0.06 in Rain Rain
6:12 PM 45.0 °F 38.2 °F 41.0 °F 86% 29.53 in 1.2 mi North 15.0 mph 26.5 mph 0.12 in Rain Heavy Rain
6:21 PM 45.0 °F 38.5 °F 41.0 °F 86% 29.54 in 2.5 mi North 13.8 mph 24.2 mph 0.14 in Rain Light Rain
6:30 PM 45.0 °F 39.7 °F 41.0 °F 86% 29.55 in 3.0 mi North 10.4 mph 21.9 mph 0.16 in Rain Light Rain
6:38 PM 45.0 °F 40.1 °F 41.0 °F 86% 29.56 in 4.0 mi North 9.2 mph 19.6 mph 0.17 in Rain Rain
6:53 PM 44.1 °F 39.0 °F 41.0 °F 89% 29.56 in 4.0 mi North 9.2 mph 18.4 mph 0.20 in Rain Light Rain
7:53 PM 42.1 °F 34.5 °F 37.9 °F 85% 29.58 in 10.0 mi North 15.0 mph 25.3 mph 0.02 in Rain Light Rain
8:53 PM 42.1 °F 35.7 °F 36.0 °F 79% 29.62 in 10.0 mi North 11.5 mph 23.0 mph 0.01 in   Overcast
9:53 PM 42.1 °F 35.7 °F 36.0 °F 79% 29.64 in 10.0 mi NNW 11.5 mph 18.4 mph N/A   Overcast
10:53 PM 41.0 °F 36.4 °F 36.0 °F 82% 29.67 in 10.0 mi NNW 6.9 mph - 0.00 in   Overcast
11:53 PM 39.9 °F 32.9 °F 35.1 °F 83% 29.69 in 10.0 mi NNW 11.5 mph 18.4 mph N/A   Overcast